FW1519 Weather Reports


Display with metric or nautical units.
time (UTC)temp
F
wind
direction
speed
MPH
gust
MPH
rain 1hr
in
rain 24hr
in
rain mn
in
humidity
%
barometer
mb
20260506231034 44 257 5.0 12.0 0.00 0.00 0.00 50 1014.7
20260506230533 44 302 5.0 12.0 0.00 0.00 0.00 50 1014.7
20260506230033 43 227 6.0 13.0 0.00 0.00 0.00 50 1014.7
20260506225533 43 252 7.0 15.0 0.00 0.00 0.00 50 1014.8
20260506225033 44 208 7.0 15.0 0.00 0.00 0.00 50 1014.7
20260506224531 44 286 6.0 14.0 0.00 0.00 0.00 50 1014.7
20260506224029 44 306 5.0 12.0 0.00 0.00 0.00 50 1014.8
20260506223531 44 223 5.0 11.0 0.00 0.00 0.00 50 1014.8
20260506223030 44 274 6.0 13.0 0.00 0.00 0.00 50 1014.8
20260506222529 43 311 7.0 13.0 0.00 0.00 0.00 50 1014.8
20260506222029 44 279 7.0 14.0 0.00 0.00 0.00 50 1014.8
20260506221530 44 264 7.0 14.0 0.00 0.00 0.00 50 1014.8
20260506220530 44 274 6.0 15.0 0.00 0.00 0.00 50 1014.9
20260506220028 43 251 6.0 12.0 0.00 0.00 0.00 50 1014.9
20260506215531 43 235 6.0 13.0 0.00 0.00 0.00 50 1014.9
20260506215026 43 257 6.0 13.0 0.00 0.00 0.00 50 1015.0
20260506214520 43 309 7.0 15.0 0.00 0.00 0.00 51 1015.0
20260506214015 43 297 9.0 17.0 0.00 0.00 0.00 50 1015.1
20260506213509 43 229 9.0 17.0 0.00 0.00 0.00 50 1015.1
20260506212504 43 290 7.0 12.0 0.00 0.00 0.00 51 1015.1
20260506212003 43 246 7.0 13.0 0.00 0.00 0.00 50 1015.2
20260506211503 43 213 7.0 13.0 0.00 0.00 0.00 50 1015.3
20260506211003 43 268 7.0 13.0 0.00 0.00 0.00 50 1015.4
20260506210503 42 227 7.0 13.0 0.00 0.00 0.00 50 1015.3
20260506210003 42 304 7.0 13.0 0.00 0.00 0.00 50 1015.4
20260506205503 42 258 8.0 13.0 0.00 0.00 0.00 50 1015.3
20260506205003 42 246 9.0 17.0 0.00 0.00 0.00 50 1015.4
20260506204503 42 282 10.0 17.0 0.00 0.00 0.00 50 1015.4
20260506204001 42 300 10.0 17.0 0.00 0.00 0.00 50 1015.4
20260506203502 42 302 9.0 17.0 0.00 0.00 0.00 51 1015.5
20260506203002 42 275 9.0 16.0 0.00 0.00 0.00 51 1015.5
20260506202503 42 329 8.0 17.0 0.00 0.00 0.00 51 1015.6
20260506201503 42 273 7.0 16.0 0.00 0.00 0.00 51 1015.5
20260506200958 42 277 7.0 13.0 0.00 0.00 0.00 52 1015.5
20260506195951 42 280 5.0 13.0 0.00 0.00 0.00 51 1015.6
20260506195451 42 239 4.0 11.0 0.00 0.00 0.00 52 1015.7
20260506194449 41 290 7.0 12.0 0.00 0.00 0.00 52 1015.7
20260506193949 41 292 7.0 13.0 0.00 0.00 0.00 52 1015.7
20260506193446 42 265 6.0 13.0 0.00 0.00 0.00 53 1015.6
20260506192947 41 265 6.0 13.0 0.00 0.00 0.00 52 1015.7
20260506192448 41 255 7.0 13.0 0.00 0.00 0.00 53 1015.7
20260506191949 41 307 6.0 13.0 0.00 0.00 0.00 53 1015.9
20260506190948 41 227 6.0 14.0 0.00 0.00 0.00 54 1015.9
20260506190447 40 300 6.0 13.0 0.00 0.00 0.00 54 1015.9
20260506185945 40 299 9.0 18.0 0.00 0.00 0.00 54 1015.7
20260506185445 40 227 9.0 18.0 0.00 0.00 0.00 54 1015.7
20260506184945 40 269 9.0 17.0 0.00 0.00 0.00 53 1015.9
20260506184446 40 293 7.0 14.0 0.00 0.00 0.00 54 1015.9
20260506183944 40 306 6.0 12.0 0.00 0.00 0.00 54 1015.9
20260506183445 40 313 7.0 16.0 0.00 0.00 0.00 54 1015.9
20260506182946 40 227 8.0 16.0 0.00 0.00 0.00 54 1016.0
20260506182445 40 232 6.0 14.0 0.00 0.00 0.00 54 1016.0
20260506181443 40 325 6.0 10.0 0.00 0.00 0.00 54 1016.0
20260506180941 40 302 7.0 13.0 0.00 0.00 0.00 54 1016.0
20260506180440 40 268 8.0 13.0 0.00 0.00 0.00 54 1016.0
20260506175942 40 269 6.0 12.0 0.00 0.00 0.00 54 1016.0
20260506175441 40 273 5.0 11.0 0.00 0.00 0.00 54 1016.2
20260506174940 40 232 7.0 19.0 0.00 0.00 0.00 54 1016.1
20260506174442 40 285 8.0 19.0 0.00 0.00 0.00 54 1016.2
20260506173941 39 0 7.0 14.0 0.00 0.00 0.00 54 1016.2
20260506173442 39 312 8.0 15.0 0.00 0.00 0.00 54 1016.1
20260506172937 39 258 9.0 15.0 0.00 0.00 0.00 55 1016.2
20260506170938 39 343 7.0 14.0 0.00 0.00 0.00 55 1016.3
20260506170436 39 290 4.0 14.0 0.00 0.00 0.00 54 1016.4
20260506165937 39 301 3.0 11.0 0.00 0.00 0.00 55 1016.4
20260506164939 38 303 7.0 14.0 0.00 0.00 0.00 55 1016.4
20260506164432 38 336 7.0 14.0 0.00 0.00 0.00 56 1016.5
20260506163432 38 294 6.0 13.0 0.00 0.00 0.00 56 1016.5
20260506162432 38 275 7.0 14.0 0.00 0.00 0.00 56 1016.6
20260506161932 38 271 6.0 13.0 0.00 0.00 0.00 56 1016.6
20260506160930 38 290 7.0 12.0 0.00 0.00 0.00 57 1016.5
20260506155930 38 272 6.0 13.0 0.00 0.00 0.00 57 1016.7
20260506154929 37 260 6.0 13.0 0.00 0.00 0.00 57 1016.6
20260506154429 37 285 6.0 13.0 0.00 0.00 0.00 57 1016.5
20260506153931 37 256 7.0 16.0 0.00 0.00 0.00 58 1016.6
20260506153428 37 259 7.0 16.0 0.00 0.00 0.00 58 1016.5
20260506152919 37 281 6.0 14.0 0.00 0.00 0.00 58 1016.6
20260506152421 37 302 6.0 13.0 0.00 0.00 0.00 58 1016.5
20260506151917 37 290 6.0 13.0 0.00 0.00 0.00 59 1016.5
20260506151418 36 305 7.0 13.0 0.00 0.00 0.00 59 1016.5
20260506150916 37 286 7.0 13.0 0.00 0.00 0.00 59 1016.6
20260506150415 37 244 6.0 13.0 0.00 0.00 0.00 59 1016.6
20260506145914 37 259 5.0 12.0 0.00 0.00 0.00 60 1016.6
20260506145416 37 323 6.0 13.0 0.00 0.00 0.00 60 1016.6
20260506144412 37 323 7.0 14.0 0.00 0.00 0.00 60 1016.6
20260506143911 37 290 6.0 11.0 0.00 0.00 0.00 59 1016.5
20260506143409 36 313 6.0 12.0 0.00 0.00 0.00 60 1016.6
20260506142910 36 294 8.0 14.0 0.00 0.00 0.00 60 1016.5
20260506142407 36 292 10.0 17.0 0.00 0.00 0.00 59 1016.5
20260506141905 36 277 10.0 17.0 0.00 0.00 0.00 61 1016.5
20260506141407 36 301 10.0 16.0 0.00 0.00 0.00 61 1016.4
20260506140406 36 305 5.0 13.0 0.00 0.00 0.00 61 1016.4
20260506135403 36 315 8.0 15.0 0.00 0.00 0.00 61 1016.3
20260506134901 36 331 8.0 15.0 0.00 0.00 0.00 61 1016.2
20260506133849 37 341 7.0 13.0 0.00 0.00 0.00 61 1016.1
20260506133343 37 315 8.0 15.0 0.00 0.00 0.00 62 1016.0
20260506132841 37 294 10.0 16.0 0.00 0.00 0.00 62 1016.0
20260506132342 37 307 8.0 16.0 0.00 0.00 0.00 60 1015.9
20260506131839 37 286 7.0 15.0 0.00 0.00 0.00 62 1015.7
20260506131340 37 314 7.0 15.0 0.00 0.00 0.00 62 1015.6
20260506130839 37 299 6.0 13.0 0.00 0.00 0.00 62 1015.6
20260506130336 36 288 6.0 15.0 0.00 0.00 0.00 63 1015.6
20260506125333 36 297 6.0 16.0 0.00 0.00 0.00 63 1015.4
20260506124834 36 314 7.0 14.0 0.00 0.00 0.00 64 1015.5
20260506124331 36 277 7.0 14.0 0.00 0.00 0.00 63 1015.4
20260506123830 36 296 7.0 12.0 0.00 0.00 0.00 64 1015.4
20260506123330 36 309 7.0 11.0 0.00 0.00 0.00 64 1015.3
20260506122829 36 323 6.0 15.0 0.00 0.00 0.00 64 1015.3
20260506122329 36 285 6.0 15.0 0.00 0.00 0.00 64 1015.3
20260506121829 36 267 5.0 11.0 0.00 0.00 0.00 64 1015.1
20260506121330 35 292 4.0 14.0 0.00 0.00 0.00 65 1015.1
20260506120830 35 306 5.0 14.0 0.00 0.00 0.00 65 1015.0
20260506120329 35 256 5.0 13.0 0.00 0.00 0.00 65 1014.9
20260506115830 35 311 5.0 12.0 0.00 0.00 0.00 65 1014.9
20260506115323 35 275 5.0 10.0 0.00 0.00 0.00 65 1014.8
20260506113308 35 253 3.0 7.0 0.00 0.00 0.00 66 1014.7
20260506112807 35 260 3.0 7.0 0.00 0.00 0.00 66 1014.7
20260506112306 35 271 3.0 7.0 0.00 0.00 0.00 66 1014.6
20260506111804 35 244 3.0 7.0 0.00 0.00 0.00 65 1014.6
20260506111305 35 273 3.0 8.0 0.00 0.00 0.00 65 1014.5
20260506110804 35 241 4.0 9.0 0.00 0.00 0.00 64 1014.5
20260506110304 35 265 3.0 9.0 0.00 0.00 0.00 64 1014.5
20260506105803 35 248 3.0 8.0 0.00 0.00 0.00 64 1014.4
20260506105305 35 280 4.0 8.0 0.00 0.00 0.00 64 1014.4
20260506104802 35 248 4.0 10.0 0.00 0.00 0.00 64 1014.4
20260506104302 35 286 4.0 11.0 0.00 0.00 0.00 64 1014.3
20260506103802 35 280 4.0 11.0 0.00 0.00 0.00 64 1014.2
20260506103302 35 292 4.0 10.0 0.00 0.00 0.00 64 1014.2
20260506102801 35 302 3.0 9.0 0.00 0.00 0.00 64 1014.1
20260506102305 35 318 3.0 7.0 0.00 0.00 0.00 64 1014.1
20260506100800 36 290 4.0 9.0 0.00 0.00 0.00 63 1014.2
20260506100253 36 274 3.0 9.0 0.00 0.00 0.00 63 1014.2
20260506095746 36 279 3.0 7.0 0.00 0.00 0.00 63 1014.2
20260506095241 36 271 3.0 8.0 0.00 0.00 0.00 62 1014.2
20260506094736 36 257 4.0 8.0 0.00 0.00 0.00 62 1014.1
20260506093732 36 284 3.0 8.0 0.00 0.00 0.00 62 1014.2
20260506093232 36 274 2.0 6.0 0.00 0.00 0.00 61 1014.2
20260506092731 36 273 2.0 7.0 0.00 0.00 0.00 61 1014.2
20260506092230 36 291 3.0 7.0 0.00 0.00 0.00 61 1014.0
20260506091730 36 295 3.0 7.0 0.00 0.00 0.00 62 1014.1
20260506091230 36 304 3.0 7.0 0.00 0.00 0.00 61 1014.0
20260506090730 36 283 3.0 7.0 0.00 0.00 0.00 62 1014.1
20260506085731 36 309 3.0 8.0 0.00 0.00 0.00 62 1014.0
20260506085230 36 279 3.0 8.0 0.00 0.00 0.00 62 1014.0
20260506084731 36 291 3.0 8.0 0.00 0.00 0.00 61 1014.0
20260506084231 36 298 3.0 8.0 0.00 0.00 0.00 61 1014.0
20260506082729 36 298 3.0 9.0 0.00 0.00 0.00 62 1013.9
20260506082232 36 302 3.0 9.0 0.00 0.00 0.00 62 1014.0
20260506081729 36 304 4.0 9.0 0.00 0.00 0.00 62 1013.9
20260506081226 36 298 6.0 14.0 0.00 0.00 0.00 62 1013.9
20260506080728 36 321 6.0 14.0 0.00 0.00 0.00 62 1013.8
20260506080227 36 336 6.0 11.0 0.00 0.00 0.00 63 1013.8
20260506073227 36 296 1.0 4.0 0.00 0.00 0.00 63 1013.8
20260506072726 36 292 2.0 4.0 0.00 0.00 0.00 63 1013.8
20260506072226 36 274 2.0 7.0 0.00 0.00 0.00 63 1013.8
20260506071726 37 292 2.0 7.0 0.00 0.00 0.00 63 1013.8
20260506071225 36 292 3.0 6.0 0.00 0.00 0.00 64 1013.8
20260506070725 36 319 2.0 6.0 0.00 0.00 0.00 64 1013.8
20260506070226 36 284 2.0 5.0 0.00 0.00 0.00 64 1013.8
20260506062219 35 301 4.0 8.0 0.00 0.00 0.00 64 1013.9
20260506061719 35 297 3.0 8.0 0.00 0.00 0.00 65 1013.9
20260506061219 35 278 1.0 7.0 0.00 0.00 0.00 65 1014.0
20260506060718 35 258 2.0 8.0 0.00 0.00 0.00 65 1014.0
20260506060219 35 304 2.0 8.0 0.00 0.00 0.00 65 1013.9
20260506051214 34 261 0.0 2.0 0.00 0.00 0.00 66 1013.7
20260506050714 34 261 1.0 2.0 0.00 0.00 0.00 65 1013.7
20260506050215 34 264 1.0 2.0 0.00 0.00 0.00 65 1013.7
20260506044709 35 287 0.0 1.0 0.00 0.00 0.00 63 1013.6
20260506044206 35 290 0.0 3.0 0.00 0.00 0.00 62 1013.6
20260506042704 36 285 1.0 4.0 0.00 0.00 0.00 62 1013.5
20260506041701 36 306 2.0 4.0 0.00 0.00 0.00 61 1013.5
20260506041202 36 323 2.0 4.0 0.00 0.00 0.00 60 1013.5
20260506040201 37 314 2.0 5.0 0.00 0.00 0.00 60 1013.5
20260506035702 37 300 2.0 5.0 0.00 0.00 0.00 60 1013.4
20260506035202 37 309 3.0 8.0 0.00 0.00 0.00 60 1013.5
20260506034203 37 322 3.0 8.0 0.00 0.00 0.00 58 1013.3
20260506033702 38 317 2.0 8.0 0.00 0.00 0.00 59 1013.3
20260506033203 38 325 3.0 8.0 0.00 0.00 0.00 59 1013.3
20260506032150 38 315 4.0 9.0 0.00 0.00 0.00 57 1013.3
20260506031138 38 313 4.0 10.0 0.00 0.00 0.00 56 1013.3
20260506030631 39 342 3.0 8.0 0.00 0.00 0.00 56 1013.3
20260506030126 39 303 2.0 8.0 0.00 0.00 0.00 56 1013.3
20260506024608 39 318 7.0 12.0 0.00 0.00 0.00 54 1013.1
20260506024109 40 293 6.0 12.0 0.00 0.00 0.00 53 1013.1
20260506023608 40 292 7.0 12.0 0.00 0.00 0.00 54 1013.0
20260506022108 40 319 7.0 14.0 0.00 0.00 0.00 52 1012.9
20260506021607 40 333 7.0 15.0 0.00 0.00 0.00 52 1012.8
20260506021107 41 314 7.0 15.0 0.00 0.00 0.00 52 1012.6
20260506020605 41 327 8.0 17.0 0.00 0.00 0.00 51 1012.6
20260506020105 41 302 8.0 17.0 0.00 0.00 0.00 51 1012.5
20260506015605 41 292 8.0 14.0 0.00 0.00 0.00 51 1012.5
20260506014603 41 294 7.0 15.0 0.00 0.00 0.00 52 1012.1
20260506014103 42 320 6.0 15.0 0.00 0.00 0.00 52 1012.0
20260506013603 42 0 6.0 14.0 0.00 0.00 0.00 52 1012.0
20260506013103 42 305 7.0 14.0 0.00 0.00 0.00 52 1012.0
20260506012602 42 316 7.0 13.0 0.00 0.00 0.00 51 1011.9
20260506012102 42 326 7.0 13.0 0.00 0.00 0.00 51 1011.9
20260506011603 42 351 5.0 13.0 0.00 0.00 0.00 51 1011.9
20260506011103 42 298 6.0 15.0 0.00 0.00 0.00 51 1011.9
20260506005101 43 314 10.0 19.0 0.00 0.00 0.00 50 1011.8
20260506004603 43 310 9.0 19.0 0.00 0.00 0.00 50 1011.7
20260506003602 43 323 9.0 17.0 0.00 0.00 0.00 50 1011.6
20260506003102 43 306 8.0 15.0 0.00 0.00 0.00 51 1011.6
20260506002601 43 280 9.0 16.0 0.00 0.00 0.00 50 1011.6
20260506002102 43 308 9.0 16.0 0.00 0.00 0.00 49 1011.5
20260506001602 44 323 8.0 16.0 0.00 0.00 0.00 49 1011.5
20260506001103 44 287 8.0 17.0 0.00 0.00 0.00 49 1011.4
20260506000603 44 313 10.0 18.0 0.00 0.00 0.00 49 1011.5
20260505235601 44 286 9.0 17.0 0.00 0.00 0.00 49 1011.3
20260505234603 44 251 10.0 18.0 0.00 0.00 0.00 48 1011.2
20260505234102 44 288 9.0 18.0 0.00 0.00 0.00 48 1011.2
20260505233602 44 274 9.0 15.0 0.00 0.00 0.00 48 1011.2
20260505233103 44 296 10.0 16.0 0.00 0.00 0.00 48 1011.1
20260505232601 44 289 12.0 22.0 0.00 0.00 0.00 48 1011.1
20260505232103 44 302 13.0 24.0 0.00 0.00 0.00 47 1011.1
20260505231602 45 251 10.0 24.0 0.00 0.00 0.00 47 1011.0